Year,Month,Day,Hour,Minute,Value (Times are PST for temperature in C)
2017,10,13,00,00,7.30
2017,10,13,00,01,7.30
2017,10,13,00,02,7.30
2017,10,13,00,03,7.30
2017,10,13,00,04,7.20
2017,10,13,00,05,7.20
2017,10,13,00,06,7.20
2017,10,13,00,07,7.20
2017,10,13,00,08,7.20
2017,10,13,00,09,7.20
2017,10,13,00,10,7.20
2017,10,13,00,11,7.20
2017,10,13,00,12,7.20
2017,10,13,00,13,7.20
2017,10,13,00,14,7.10
2017,10,13,00,15,7.10
2017,10,13,00,16,7.10
2017,10,13,00,17,7.10
2017,10,13,00,18,7.10
2017,10,13,00,19,7.10
2017,10,13,00,20,7.10
2017,10,13,00,21,7.10
2017,10,13,00,22,7.10
2017,10,13,00,23,7.10
2017,10,13,00,24,7.10
2017,10,13,00,25,7.10
2017,10,13,00,26,7.10
2017,10,13,00,27,7.10
2017,10,13,00,28,7.10
2017,10,13,00,29,7.10
2017,10,13,00,30,7.10
2017,10,13,00,31,7.10
2017,10,13,00,32,7.10
2017,10,13,00,33,7.10
2017,10,13,00,34,7.10
2017,10,13,00,35,7.10
2017,10,13,00,36,7.10
2017,10,13,00,37,7.10
2017,10,13,00,38,7.10
2017,10,13,00,39,7.10
2017,10,13,00,40,7.10
2017,10,13,00,41,7.10
2017,10,13,00,42,7.10
2017,10,13,00,43,7.10
2017,10,13,00,44,7.10
2017,10,13,00,45,7.10
2017,10,13,00,46,7.10
2017,10,13,00,47,7.20
2017,10,13,00,48,7.20
2017,10,13,00,49,7.20
2017,10,13,00,50,7.20
2017,10,13,00,51,7.20
2017,10,13,00,52,7.20
2017,10,13,00,53,7.20
2017,10,13,00,54,7.20
2017,10,13,00,55,7.20
2017,10,13,00,56,7.20
2017,10,13,00,57,7.20
2017,10,13,00,58,7.20
2017,10,13,00,59,7.20
2017,10,13,01,00,7.20
2017,10,13,01,01,7.20
2017,10,13,01,02,7.20
2017,10,13,01,03,7.20
2017,10,13,01,04,7.20
2017,10,13,01,05,7.20
2017,10,13,01,06,7.20
2017,10,13,01,07,7.20
2017,10,13,01,08,7.20
2017,10,13,01,09,7.20
2017,10,13,01,10,7.20
2017,10,13,01,11,7.20
2017,10,13,01,12,7.20
2017,10,13,01,13,7.20
2017,10,13,01,14,7.20
2017,10,13,01,15,7.20
2017,10,13,01,16,7.20
2017,10,13,01,17,7.20
2017,10,13,01,18,7.20
2017,10,13,01,19,7.30
2017,10,13,01,20,7.30
2017,10,13,01,21,7.30
2017,10,13,01,22,7.30
2017,10,13,01,23,7.30
2017,10,13,01,24,7.30
2017,10,13,01,25,7.30
2017,10,13,01,26,7.30
2017,10,13,01,27,7.30
2017,10,13,01,28,7.30
2017,10,13,01,29,7.30
2017,10,13,01,30,7.30
2017,10,13,01,31,7.30
2017,10,13,01,32,7.30
2017,10,13,01,33,7.30
2017,10,13,01,34,7.30
2017,10,13,01,35,7.30
2017,10,13,01,36,7.30
2017,10,13,01,37,7.30
2017,10,13,01,38,7.30
2017,10,13,01,39,7.30
2017,10,13,01,40,7.30
2017,10,13,01,41,7.30
2017,10,13,01,42,7.30
2017,10,13,01,43,7.30
2017,10,13,01,44,7.30
2017,10,13,01,45,7.30
2017,10,13,01,46,7.30
2017,10,13,01,47,7.30
2017,10,13,01,48,7.30
2017,10,13,01,49,7.30
2017,10,13,01,50,7.30
2017,10,13,01,51,7.30
2017,10,13,01,52,7.30
2017,10,13,01,53,7.30
2017,10,13,01,54,7.30
2017,10,13,01,55,7.40
2017,10,13,01,56,7.40
2017,10,13,01,57,7.40
2017,10,13,01,58,7.40
2017,10,13,01,59,7.40
2017,10,13,02,00,7.40
2017,10,13,02,01,7.40
2017,10,13,02,02,7.40
2017,10,13,02,03,7.40
2017,10,13,02,04,7.40
2017,10,13,02,05,7.40
2017,10,13,02,06,7.40
2017,10,13,02,07,7.40
2017,10,13,02,08,7.40
2017,10,13,02,09,7.40
2017,10,13,02,10,7.40
2017,10,13,02,11,7.40
2017,10,13,02,12,7.40
2017,10,13,02,13,7.40
2017,10,13,02,14,7.30
2017,10,13,02,15,7.30
2017,10,13,02,16,7.30
2017,10,13,02,17,7.30
2017,10,13,02,18,7.30
2017,10,13,02,19,7.30
2017,10,13,02,20,7.30
2017,10,13,02,21,7.30
2017,10,13,02,22,7.30
2017,10,13,02,23,7.30
2017,10,13,02,24,7.30
2017,10,13,02,25,7.30
2017,10,13,02,26,7.20
2017,10,13,02,27,7.20
2017,10,13,02,28,7.20
2017,10,13,02,29,7.20
2017,10,13,02,30,7.20
2017,10,13,02,31,7.20
2017,10,13,02,32,7.20
2017,10,13,02,33,7.10
2017,10,13,02,34,7.10
2017,10,13,02,35,7.10
2017,10,13,02,36,7.10
2017,10,13,02,37,7.10
2017,10,13,02,38,7.10
2017,10,13,02,39,7.10
2017,10,13,02,40,7.00
2017,10,13,02,41,7.00
2017,10,13,02,42,7.00
2017,10,13,02,43,6.90
2017,10,13,02,44,6.90
2017,10,13,02,45,6.90
2017,10,13,02,46,6.90
2017,10,13,02,47,6.90
2017,10,13,02,48,6.90
2017,10,13,02,49,6.90
2017,10,13,02,50,6.90
2017,10,13,02,51,6.90
2017,10,13,02,52,6.80
2017,10,13,02,53,6.80
2017,10,13,02,54,6.80
2017,10,13,02,55,6.80
2017,10,13,02,56,6.80
2017,10,13,02,57,6.80
2017,10,13,02,58,6.80
2017,10,13,02,59,6.80
2017,10,13,03,00,6.80
2017,10,13,03,01,6.80
2017,10,13,03,02,6.80
2017,10,13,03,03,6.80
2017,10,13,03,04,6.80
2017,10,13,03,05,6.80
2017,10,13,03,06,6.80
2017,10,13,03,07,6.80
2017,10,13,03,08,6.80
2017,10,13,03,09,6.80
2017,10,13,03,10,6.80
2017,10,13,03,11,6.80
2017,10,13,03,12,6.80
2017,10,13,03,13,6.80
2017,10,13,03,14,6.80
2017,10,13,03,15,6.80
2017,10,13,03,16,6.80
2017,10,13,03,17,6.80
2017,10,13,03,18,6.80
2017,10,13,03,19,6.80
2017,10,13,03,20,6.80
2017,10,13,03,21,6.80
2017,10,13,03,22,6.80
2017,10,13,03,23,6.80
2017,10,13,03,24,6.80
2017,10,13,03,25,6.80
2017,10,13,03,26,6.80
2017,10,13,03,27,6.80
2017,10,13,03,28,6.80
2017,10,13,03,29,6.80
2017,10,13,03,30,6.80
2017,10,13,03,31,6.80
2017,10,13,03,32,6.80
2017,10,13,03,33,6.80
2017,10,13,03,34,6.80
2017,10,13,03,35,6.70
2017,10,13,03,36,6.70
2017,10,13,03,37,6.70
2017,10,13,03,38,6.70
2017,10,13,03,39,6.70
2017,10,13,03,40,6.70
2017,10,13,03,41,6.70
2017,10,13,03,42,6.70
2017,10,13,03,43,6.70
2017,10,13,03,44,6.60
2017,10,13,03,45,6.60
2017,10,13,03,46,6.60
2017,10,13,03,47,6.60
2017,10,13,03,48,6.60
2017,10,13,03,49,6.50
2017,10,13,03,50,6.50
2017,10,13,03,51,6.50
2017,10,13,03,52,6.50
2017,10,13,03,53,6.50
2017,10,13,03,54,6.50
2017,10,13,03,55,6.40
2017,10,13,03,56,6.40
2017,10,13,03,57,6.40
2017,10,13,03,58,6.40
2017,10,13,03,59,6.40
2017,10,13,04,00,6.40
2017,10,13,04,01,6.40
2017,10,13,04,02,6.40
2017,10,13,04,03,6.40
2017,10,13,05,04,6.80
2017,10,13,05,05,6.70
2017,10,13,05,06,6.70
2017,10,13,05,07,6.70
2017,10,13,05,08,6.70
2017,10,13,05,09,6.70
2017,10,13,05,10,6.70
2017,10,13,05,11,6.70
2017,10,13,05,12,6.70
2017,10,13,05,13,6.70
2017,10,13,05,14,6.70
2017,10,13,05,15,6.70
2017,10,13,05,16,6.70
2017,10,13,05,17,6.70
2017,10,13,05,18,6.70
2017,10,13,05,19,6.70
2017,10,13,05,20,6.70
2017,10,13,05,21,6.70
2017,10,13,05,22,6.70
2017,10,13,05,23,6.70
2017,10,13,05,24,6.70
2017,10,13,05,25,6.80
2017,10,13,05,26,6.70
2017,10,13,05,27,6.70
2017,10,13,05,28,6.70
2017,10,13,05,29,6.70
2017,10,13,05,30,6.70
2017,10,13,05,31,6.70
2017,10,13,05,32,6.70
2017,10,13,05,33,6.70
2017,10,13,05,34,6.70
2017,10,13,05,35,6.70
2017,10,13,05,36,6.70
2017,10,13,05,37,6.70
2017,10,13,05,38,6.60
2017,10,13,05,39,6.60
2017,10,13,05,40,6.60
2017,10,13,05,41,6.60
2017,10,13,05,42,6.60
2017,10,13,05,43,6.50
2017,10,13,05,44,6.50
2017,10,13,05,45,6.50
2017,10,13,05,46,6.40
2017,10,13,05,47,6.40
2017,10,13,05,48,6.40
2017,10,13,05,49,6.40
2017,10,13,05,50,6.30
2017,10,13,05,51,6.30
2017,10,13,05,52,6.30
2017,10,13,05,53,6.30
2017,10,13,05,54,6.30
2017,10,13,05,55,6.30
2017,10,13,05,56,6.30
2017,10,13,05,57,6.30
2017,10,13,05,58,6.30
2017,10,13,05,59,6.20
2017,10,13,06,00,6.20
2017,10,13,06,01,6.20
2017,10,13,06,02,6.20
2017,10,13,06,03,6.20
2017,10,13,06,04,6.20
2017,10,13,06,05,6.20
2017,10,13,06,06,6.20
2017,10,13,06,07,6.20
2017,10,13,06,08,6.20
2017,10,13,06,09,6.20
2017,10,13,06,10,6.10
2017,10,13,06,11,6.10
2017,10,13,06,12,6.10
2017,10,13,06,13,6.10
2017,10,13,06,14,6.10
2017,10,13,06,15,6.10
2017,10,13,06,16,6.10
2017,10,13,06,17,6.10
2017,10,13,06,18,6.10
2017,10,13,06,19,6.10
2017,10,13,06,20,6.10
2017,10,13,06,21,6.10
2017,10,13,06,22,6.10
2017,10,13,06,23,6.10
2017,10,13,06,24,6.10
2017,10,13,06,25,6.20
2017,10,13,06,26,6.20
2017,10,13,06,27,6.20
2017,10,13,06,28,6.20
2017,10,13,06,29,6.20
2017,10,13,06,30,6.20
2017,10,13,06,31,6.20
2017,10,13,06,32,6.20
2017,10,13,06,33,6.20
2017,10,13,06,34,6.20
2017,10,13,06,35,6.20
2017,10,13,06,36,6.20
2017,10,13,06,37,6.30
2017,10,13,06,38,6.30
2017,10,13,06,39,6.30
2017,10,13,06,40,6.30
2017,10,13,06,41,6.30
2017,10,13,06,42,6.30
2017,10,13,06,43,6.30
2017,10,13,06,44,6.30
2017,10,13,06,45,6.30
2017,10,13,06,46,6.30
2017,10,13,06,47,6.30
2017,10,13,06,48,6.30
2017,10,13,06,49,6.30
2017,10,13,06,50,6.30
2017,10,13,06,51,6.30
2017,10,13,06,52,6.30
2017,10,13,06,53,6.30
2017,10,13,06,54,6.30
2017,10,13,06,55,6.30
2017,10,13,06,56,6.30
2017,10,13,06,57,6.30
2017,10,13,06,58,6.30
2017,10,13,08,56,5.90
2017,10,13,08,57,5.90
2017,10,13,08,58,5.90
2017,10,13,08,59,5.90
2017,10,13,09,00,5.90
2017,10,13,09,01,6.00
2017,10,13,09,02,6.00
2017,10,13,09,03,6.00
2017,10,13,09,04,6.00
2017,10,13,09,05,6.00
2017,10,13,09,06,6.10
2017,10,13,09,07,6.10
2017,10,13,09,08,6.10
2017,10,13,09,09,6.10
2017,10,13,09,10,6.10
2017,10,13,09,11,6.10
2017,10,13,09,12,6.10
2017,10,13,09,13,6.10
2017,10,13,09,14,6.10
2017,10,13,09,15,6.10
2017,10,13,09,16,6.20
2017,10,13,09,17,6.20
2017,10,13,09,18,6.20
2017,10,13,09,19,6.20
2017,10,13,09,20,6.20
2017,10,13,09,21,6.30
2017,10,13,09,22,6.30
2017,10,13,09,23,6.30
2017,10,13,09,24,6.30
2017,10,13,09,25,6.30
2017,10,13,09,26,6.40
2017,10,13,09,27,6.40
2017,10,13,09,28,6.40
2017,10,13,09,29,6.40
2017,10,13,09,30,6.40
2017,10,13,09,31,6.40
2017,10,13,09,32,6.40
2017,10,13,09,33,6.50
2017,10,13,09,34,6.50
2017,10,13,09,35,6.50
2017,10,13,09,36,6.50
2017,10,13,09,37,6.50
2017,10,13,09,38,6.50
2017,10,13,09,39,6.60
2017,10,13,09,40,6.60
2017,10,13,09,41,6.60
2017,10,13,09,42,6.60
2017,10,13,09,43,6.60
2017,10,13,09,44,6.60
2017,10,13,09,45,6.60
2017,10,13,09,46,6.60
2017,10,13,09,47,6.60
2017,10,13,09,48,6.70
2017,10,13,09,49,6.70
2017,10,13,09,50,6.70
2017,10,13,09,51,6.70
2017,10,13,09,52,6.70
2017,10,13,09,53,6.70
2017,10,13,09,54,6.70
2017,10,13,09,55,6.80
2017,10,13,09,56,6.80
2017,10,13,09,57,6.80
2017,10,13,09,58,6.80
2017,10,13,09,59,6.80
2017,10,13,10,00,6.80
2017,10,13,10,01,6.80
2017,10,13,10,02,6.80
2017,10,13,10,03,6.80
2017,10,13,10,04,6.80
2017,10,13,10,05,6.90
2017,10,13,10,06,6.90
2017,10,13,10,07,6.90
2017,10,13,10,08,6.90
2017,10,13,10,09,7.00
2017,10,13,10,10,7.00
2017,10,13,10,11,7.00
2017,10,13,10,12,7.00
2017,10,13,10,13,7.00
2017,10,13,10,14,7.10
2017,10,13,10,15,7.10
2017,10,13,10,16,7.10
2017,10,13,10,17,7.10
2017,10,13,10,18,7.10
2017,10,13,10,19,7.10
2017,10,13,10,20,7.10
2017,10,13,10,21,7.10
2017,10,13,10,22,7.20
2017,10,13,10,23,7.20
2017,10,13,10,24,7.20
2017,10,13,10,25,7.20
2017,10,13,10,26,7.20
2017,10,13,10,27,7.20
2017,10,13,10,28,7.20
2017,10,13,10,29,7.20
2017,10,13,10,30,7.20
2017,10,13,10,31,7.20
2017,10,13,10,32,7.20
2017,10,13,10,33,7.20
2017,10,13,10,34,7.20
2017,10,13,10,35,7.20
2017,10,13,10,36,7.20
2017,10,13,10,37,7.20
2017,10,13,10,38,7.20
2017,10,13,10,39,7.20
2017,10,13,10,40,7.30
2017,10,13,10,41,7.30
2017,10,13,10,42,7.30
2017,10,13,10,43,7.30
2017,10,13,10,44,7.30
2017,10,13,10,45,7.30
2017,10,13,10,46,7.40
2017,10,13,10,47,7.40
2017,10,13,10,48,7.40
2017,10,13,10,49,7.40
2017,10,13,10,50,7.40
2017,10,13,10,51,7.40
2017,10,13,10,52,7.40
2017,10,13,10,53,7.50
2017,10,13,10,54,7.50
2017,10,13,10,55,7.60
2017,10,13,10,56,7.60
2017,10,13,10,57,7.70
2017,10,13,10,58,7.70
2017,10,13,10,59,7.80
2017,10,13,11,00,7.80
2017,10,13,11,01,7.80
2017,10,13,11,02,7.90
2017,10,13,11,03,7.90
2017,10,13,11,04,8.00
2017,10,13,11,05,8.00
2017,10,13,11,06,8.00
2017,10,13,11,07,8.10
2017,10,13,11,08,8.10
2017,10,13,11,09,8.10
2017,10,13,11,10,8.10
2017,10,13,11,11,8.10
2017,10,13,11,12,8.20
2017,10,13,11,13,8.20
2017,10,13,11,14,8.20
2017,10,13,11,15,8.30
2017,10,13,11,16,8.30
2017,10,13,11,17,8.30
2017,10,13,11,18,8.40
2017,10,13,11,19,8.40
2017,10,13,11,20,8.50
2017,10,13,11,21,8.50
2017,10,13,11,22,8.60
2017,10,13,11,23,8.60
2017,10,13,11,24,8.60
2017,10,13,11,25,8.60
2017,10,13,11,26,8.60
2017,10,13,11,27,8.70
2017,10,13,11,28,8.70
2017,10,13,11,29,8.80
2017,10,13,11,30,8.80
2017,10,13,11,31,8.90
2017,10,13,11,32,9.00
2017,10,13,11,33,9.10
2017,10,13,11,34,9.20
2017,10,13,11,35,9.20
2017,10,13,11,36,9.30
2017,10,13,11,37,9.30
2017,10,13,11,38,9.30
2017,10,13,11,39,9.30
2017,10,13,11,40,9.30
2017,10,13,11,41,9.40
2017,10,13,11,42,9.40
2017,10,13,11,43,9.40
2017,10,13,11,44,9.40
2017,10,13,11,45,9.40
2017,10,13,11,46,9.40
2017,10,13,11,47,9.50
2017,10,13,11,48,9.50
2017,10,13,11,49,9.50
2017,10,13,11,50,9.50
2017,10,13,11,51,9.50
2017,10,13,11,52,9.50
2017,10,13,11,53,9.50
2017,10,13,11,54,9.60
2017,10,13,11,55,9.60
2017,10,13,11,56,9.60
2017,10,13,11,57,9.60
2017,10,13,11,58,9.60
2017,10,13,11,59,9.60
2017,10,13,12,00,9.60
2017,10,13,12,01,9.60
2017,10,13,12,02,9.60
2017,10,13,12,03,9.60
2017,10,13,12,04,9.70
2017,10,13,12,05,9.70
2017,10,13,12,06,9.70
2017,10,13,12,07,9.80
2017,10,13,12,08,9.80
2017,10,13,12,09,9.80
2017,10,13,12,10,9.80
2017,10,13,12,11,9.80
2017,10,13,12,12,9.80
2017,10,13,12,13,9.80
2017,10,13,12,14,9.80
2017,10,13,12,15,9.80
2017,10,13,12,16,9.80
2017,10,13,12,17,9.80
2017,10,13,12,18,9.80
2017,10,13,12,19,9.80
2017,10,13,12,20,9.80
2017,10,13,12,21,9.90
2017,10,13,12,22,9.90
2017,10,13,12,23,9.90
2017,10,13,12,24,10.00
2017,10,13,12,25,10.10
2017,10,13,12,26,10.10
2017,10,13,12,27,10.20
2017,10,13,12,28,10.30
2017,10,13,12,29,10.30
2017,10,13,12,30,10.40
2017,10,13,12,31,10.50
2017,10,13,12,32,10.50
2017,10,13,12,33,10.50
2017,10,13,12,34,10.50
2017,10,13,12,35,10.60
2017,10,13,12,36,10.60
2017,10,13,12,37,10.60
2017,10,13,12,38,10.60
2017,10,13,12,39,10.70
2017,10,13,12,40,10.70
2017,10,13,12,41,10.70
2017,10,13,12,42,10.70
2017,10,13,12,43,10.70
2017,10,13,12,44,10.70
2017,10,13,12,45,10.70
2017,10,13,12,46,10.90
2017,10,13,12,47,10.90
2017,10,13,12,48,10.90
2017,10,13,12,49,10.80
2017,10,13,12,50,10.80
2017,10,13,12,51,10.90
2017,10,13,12,52,10.90
2017,10,13,12,53,10.90
2017,10,13,12,54,10.90
2017,10,13,12,55,10.90
2017,10,13,12,56,10.90
2017,10,13,12,57,10.90
2017,10,13,12,58,10.90
2017,10,13,12,59,10.90
2017,10,13,13,00,10.90
2017,10,13,13,01,10.90
2017,10,13,13,02,10.90
2017,10,13,13,03,11.00
2017,10,13,13,04,11.00
2017,10,13,13,05,11.00
2017,10,13,13,06,11.10
2017,10,13,13,07,11.00
2017,10,13,13,08,10.90
2017,10,13,13,09,10.80
2017,10,13,13,10,10.80
2017,10,13,13,11,10.70
2017,10,13,13,12,10.70
2017,10,13,13,13,10.60
2017,10,13,13,14,10.60
2017,10,13,13,15,10.60
2017,10,13,13,16,10.50
2017,10,13,13,17,10.50
2017,10,13,13,18,10.40
2017,10,13,13,19,10.40
2017,10,13,13,20,10.40
2017,10,13,13,21,10.40
2017,10,13,13,22,10.40
2017,10,13,13,23,10.40
2017,10,13,13,24,10.40
2017,10,13,13,25,10.30
2017,10,13,13,26,10.30
2017,10,13,13,27,10.30
2017,10,13,13,28,10.30
2017,10,13,13,29,10.30
2017,10,13,13,30,10.20
2017,10,13,13,31,10.20
2017,10,13,13,32,10.20
2017,10,13,13,33,10.20
2017,10,13,13,34,10.10
2017,10,13,13,35,10.10
2017,10,13,13,36,10.10
2017,10,13,13,37,10.10
2017,10,13,13,38,10.00
2017,10,13,13,39,10.00
2017,10,13,13,40,10.00
2017,10,13,13,41,10.00
2017,10,13,13,42,10.00
2017,10,13,13,43,10.00
2017,10,13,13,44,9.90
2017,10,13,13,45,9.90
2017,10,13,13,46,10.00
2017,10,13,13,47,10.00
2017,10,13,13,48,10.00
2017,10,13,13,49,10.10
2017,10,13,13,50,10.10
2017,10,13,13,51,10.20
2017,10,13,13,52,10.30
2017,10,13,13,53,10.40
2017,10,13,13,54,10.40
2017,10,13,13,55,10.50
2017,10,13,13,56,10.60
2017,10,13,13,57,10.60
2017,10,13,13,58,10.70
2017,10,13,13,59,10.80
2017,10,13,14,00,10.80
2017,10,13,14,01,10.90
2017,10,13,14,02,10.90
2017,10,13,14,03,10.90
2017,10,13,14,04,10.80
2017,10,13,14,05,10.80
2017,10,13,14,06,10.80
2017,10,13,14,07,10.70
2017,10,13,14,08,10.70
2017,10,13,14,09,10.60
2017,10,13,14,10,10.60
2017,10,13,14,11,10.50
2017,10,13,14,12,10.40
2017,10,13,14,13,10.40
2017,10,13,14,14,10.40
2017,10,13,14,15,10.30
2017,10,13,14,16,10.30
2017,10,13,14,17,10.30
2017,10,13,14,18,10.30
2017,10,13,14,19,10.30
2017,10,13,14,20,10.30
2017,10,13,14,21,10.40
2017,10,13,14,22,10.40
2017,10,13,14,23,10.50
2017,10,13,14,24,10.50
2017,10,13,14,25,10.60
2017,10,13,14,26,10.60
2017,10,13,14,27,10.70
2017,10,13,14,28,10.80
2017,10,13,14,29,10.80
2017,10,13,14,30,10.80
2017,10,13,14,31,10.90
2017,10,13,14,32,10.90
2017,10,13,14,33,10.90
2017,10,13,14,34,10.90
2017,10,13,14,35,10.90
2017,10,13,14,36,10.90
2017,10,13,14,37,10.90
2017,10,13,14,38,10.90
2017,10,13,14,39,10.80
2017,10,13,14,40,10.80
2017,10,13,14,41,10.80
2017,10,13,14,42,10.80
2017,10,13,14,43,10.80
2017,10,13,14,44,10.70
2017,10,13,14,45,10.70
2017,10,13,14,46,10.70
2017,10,13,14,47,10.70
2017,10,13,14,48,10.70
2017,10,13,14,49,10.60
2017,10,13,14,50,10.60
2017,10,13,14,51,10.60
2017,10,13,14,52,10.50
2017,10,13,14,53,10.50
2017,10,13,14,54,10.40
2017,10,13,14,55,10.40
2017,10,13,14,56,10.40
2017,10,13,14,57,10.40
2017,10,13,14,58,10.40
2017,10,13,14,59,10.40
2017,10,13,15,00,10.40
2017,10,13,15,01,10.40
2017,10,13,15,02,10.40
2017,10,13,15,03,10.40
2017,10,13,15,04,10.50
2017,10,13,15,05,10.50
2017,10,13,15,06,10.60
2017,10,13,15,07,10.60
2017,10,13,15,08,10.60
2017,10,13,15,09,10.70
2017,10,13,15,10,10.70
2017,10,13,15,11,10.70
2017,10,13,15,12,10.70
2017,10,13,15,13,10.70
2017,10,13,15,14,10.70
2017,10,13,15,15,10.70
2017,10,13,15,16,10.70
2017,10,13,15,17,10.60
2017,10,13,15,18,10.60
2017,10,13,15,19,10.60
2017,10,13,15,20,10.70
2017,10,13,15,21,10.70
2017,10,13,15,22,10.70
2017,10,13,15,23,10.70
2017,10,13,15,24,10.80
2017,10,13,15,25,10.80
2017,10,13,15,26,10.90
2017,10,13,15,27,10.90
2017,10,13,15,28,11.00
2017,10,13,15,29,11.00
2017,10,13,15,30,11.10
2017,10,13,15,31,11.10
2017,10,13,15,32,11.10
2017,10,13,15,33,11.10
2017,10,13,15,34,11.10
2017,10,13,15,35,11.10
2017,10,13,15,36,11.00
2017,10,13,15,37,11.00
2017,10,13,15,38,11.00
2017,10,13,15,39,10.90
2017,10,13,15,40,10.90
2017,10,13,15,41,10.90
2017,10,13,15,42,10.90
2017,10,13,15,43,10.90
2017,10,13,15,44,10.90
2017,10,13,15,45,10.90
2017,10,13,15,46,10.90
2017,10,13,15,47,10.90
2017,10,13,15,48,10.90
2017,10,13,15,49,10.90
2017,10,13,15,50,10.90
2017,10,13,15,51,10.90
2017,10,13,15,52,10.90
2017,10,13,15,53,10.80
2017,10,13,15,54,10.80
2017,10,13,15,55,10.90
2017,10,13,15,56,10.90
2017,10,13,15,57,10.90
2017,10,13,15,58,11.00
2017,10,13,15,59,11.00
2017,10,13,16,00,11.10
2017,10,13,16,01,11.10
2017,10,13,16,02,11.10
2017,10,13,16,03,11.10
2017,10,13,16,04,11.10
2017,10,13,16,05,11.10
2017,10,13,16,06,11.10
2017,10,13,16,07,11.10
2017,10,13,16,08,11.10
2017,10,13,16,09,11.10
2017,10,13,16,10,11.00
2017,10,13,16,11,11.00
2017,10,13,16,12,11.00
2017,10,13,16,13,10.90
2017,10,13,16,14,10.90
2017,10,13,16,15,10.90
2017,10,13,16,16,11.00
2017,10,13,16,17,11.00
2017,10,13,16,18,11.10
2017,10,13,16,19,11.10
2017,10,13,16,20,11.10
2017,10,13,16,21,11.10
2017,10,13,16,22,11.10
2017,10,13,16,23,11.20
2017,10,13,16,24,11.20
2017,10,13,16,25,11.20
2017,10,13,16,26,11.30
2017,10,13,16,27,11.30
2017,10,13,16,28,11.30
2017,10,13,16,29,11.30
2017,10,13,16,30,11.40
2017,10,13,16,31,11.40
2017,10,13,16,32,11.40
2017,10,13,16,33,11.40
2017,10,13,16,34,11.40
2017,10,13,16,35,11.40
2017,10,13,16,36,11.40
2017,10,13,16,37,11.40
2017,10,13,16,38,11.40
2017,10,13,16,39,11.40
2017,10,13,16,40,11.50
2017,10,13,16,41,11.50
2017,10,13,16,42,11.50
2017,10,13,16,43,11.40
2017,10,13,16,44,11.40
2017,10,13,16,45,11.40
2017,10,13,16,46,11.40
2017,10,13,16,47,11.40
2017,10,13,16,48,11.40
2017,10,13,16,49,11.40
2017,10,13,16,50,11.30
2017,10,13,16,51,11.30
2017,10,13,16,52,11.30
2017,10,13,16,53,11.30
2017,10,13,16,54,11.20
2017,10,13,16,55,11.20
2017,10,13,16,56,11.10
2017,10,13,16,57,11.10
2017,10,13,16,58,11.10
2017,10,13,16,59,11.10
2017,10,13,17,00,11.10
2017,10,13,17,01,11.10
2017,10,13,17,02,11.10
2017,10,13,17,03,11.10
2017,10,13,17,04,11.10
2017,10,13,17,05,11.10
2017,10,13,17,06,11.20
2017,10,13,17,07,11.20
2017,10,13,17,08,11.30
2017,10,13,17,09,11.30
2017,10,13,17,10,11.30
2017,10,13,17,11,11.40
2017,10,13,17,12,11.40
2017,10,13,17,13,11.40
2017,10,13,17,14,11.30
2017,10,13,17,15,11.30
2017,10,13,17,16,11.30
2017,10,13,17,17,11.30
2017,10,13,17,18,11.30
2017,10,13,17,19,11.30
2017,10,13,17,20,11.30
2017,10,13,17,21,11.30
2017,10,13,17,22,11.40
2017,10,13,17,23,11.40
2017,10,13,17,24,11.50
2017,10,13,17,25,11.60
2017,10,13,17,26,11.70
2017,10,13,17,27,11.70
2017,10,13,17,28,11.80
2017,10,13,17,29,11.80
2017,10,13,17,30,11.70
2017,10,13,17,31,11.70
2017,10,13,17,32,11.60
2017,10,13,17,33,11.60
2017,10,13,17,34,11.50
2017,10,13,17,35,11.40
2017,10,13,17,36,11.30
2017,10,13,17,37,11.30
2017,10,13,17,38,11.20
2017,10,13,17,39,11.10
2017,10,13,17,40,11.10
2017,10,13,17,41,11.00
2017,10,13,17,42,11.00
2017,10,13,17,43,10.90
2017,10,13,17,44,10.90
2017,10,13,17,45,10.90
2017,10,13,17,46,10.90
2017,10,13,17,47,10.90
2017,10,13,17,48,10.90
2017,10,13,17,49,10.90
2017,10,13,17,50,10.90
2017,10,13,17,51,10.90
2017,10,13,17,52,10.90
2017,10,13,17,53,10.80
2017,10,13,17,54,10.80
2017,10,13,17,55,10.80
2017,10,13,17,56,10.80
2017,10,13,17,57,10.80
2017,10,13,17,58,10.80
2017,10,13,17,59,10.80
2017,10,13,18,00,10.80
2017,10,13,18,01,10.80
2017,10,13,18,02,10.80
2017,10,13,18,03,10.80
2017,10,13,18,04,10.80
2017,10,13,18,05,10.80
2017,10,13,18,06,10.80
2017,10,13,18,07,10.80
2017,10,13,18,08,10.70
2017,10,13,18,09,10.70
2017,10,13,18,10,10.70
2017,10,13,18,11,10.60
2017,10,13,18,12,10.60
2017,10,13,18,13,10.50
2017,10,13,18,14,10.50
2017,10,13,18,15,10.40
2017,10,13,18,16,10.40
2017,10,13,18,17,10.40
2017,10,13,18,18,10.30
2017,10,13,18,19,10.30
2017,10,13,18,20,10.30
2017,10,13,18,21,10.20
2017,10,13,18,22,10.20
2017,10,13,18,23,10.10
2017,10,13,18,24,10.10
2017,10,13,18,25,10.00
2017,10,13,18,26,10.00
2017,10,13,18,27,9.90
2017,10,13,18,28,9.90
2017,10,13,18,29,9.80
2017,10,13,18,30,9.80
2017,10,13,18,31,9.80
2017,10,13,18,32,9.70
2017,10,13,18,33,9.70
2017,10,13,18,34,9.60
2017,10,13,18,35,9.60
2017,10,13,18,36,9.60
2017,10,13,18,37,9.50
2017,10,13,18,38,9.50
2017,10,13,18,39,9.40
2017,10,13,18,40,9.40
2017,10,13,18,41,9.40
2017,10,13,18,42,9.30
2017,10,13,18,43,9.30
2017,10,13,18,44,9.30
2017,10,13,18,45,9.20
2017,10,13,18,46,9.20
2017,10,13,18,47,9.10
2017,10,13,18,48,9.10
2017,10,13,18,49,9.00
2017,10,13,18,50,8.90
2017,10,13,18,51,8.90
2017,10,13,18,52,8.80
2017,10,13,18,53,8.80
2017,10,13,18,54,8.80
2017,10,13,18,55,8.70
2017,10,13,18,56,8.70
2017,10,13,18,57,8.60
2017,10,13,18,58,8.60
2017,10,13,18,59,8.60
2017,10,13,19,00,8.50
2017,10,13,19,01,8.50
2017,10,13,19,02,8.50
2017,10,13,19,03,8.40
2017,10,13,19,04,8.40
2017,10,13,19,05,8.40
2017,10,13,19,06,8.30
2017,10,13,19,07,8.30
2017,10,13,19,08,8.30
2017,10,13,19,09,8.30
2017,10,13,19,10,8.30
2017,10,13,19,11,8.20
2017,10,13,19,12,8.20
2017,10,13,19,13,8.20
2017,10,13,19,14,8.20
2017,10,13,19,15,8.20
2017,10,13,19,16,8.20
2017,10,13,19,17,8.10
2017,10,13,19,18,8.10
2017,10,13,19,19,8.10
2017,10,13,19,20,8.10
2017,10,13,19,21,8.10
2017,10,13,19,22,8.10
2017,10,13,19,23,8.10
2017,10,13,19,24,8.10
2017,10,13,19,25,8.10
2017,10,13,19,26,8.10
2017,10,13,19,27,8.10
2017,10,13,19,28,8.10
2017,10,13,19,29,8.00
2017,10,13,19,30,8.00
2017,10,13,19,31,8.00
2017,10,13,19,32,8.00
2017,10,13,19,33,8.00
2017,10,13,19,34,8.00
2017,10,13,19,35,8.00
2017,10,13,19,36,8.00
2017,10,13,19,37,8.00
2017,10,13,19,38,7.90
2017,10,13,19,39,7.90
2017,10,13,19,40,7.90
2017,10,13,19,41,7.90
2017,10,13,19,42,7.90
2017,10,13,19,43,7.90
2017,10,13,19,44,7.90
2017,10,13,19,45,7.90
2017,10,13,19,46,7.90
2017,10,13,19,47,7.90
2017,10,13,19,48,7.90
2017,10,13,19,49,7.90
2017,10,13,19,50,7.90
2017,10,13,19,51,7.90
2017,10,13,19,52,7.90
2017,10,13,19,53,7.90
2017,10,13,19,54,7.90
2017,10,13,19,55,7.90
2017,10,13,19,56,7.90
2017,10,13,19,57,7.90
2017,10,13,19,58,7.90
2017,10,13,19,59,7.90
2017,10,13,20,00,7.80
2017,10,13,20,01,7.80
2017,10,13,20,02,7.80
2017,10,13,20,03,7.80
2017,10,13,20,04,7.80
2017,10,13,20,05,7.80
2017,10,13,20,06,7.70
2017,10,13,20,07,7.70
2017,10,13,20,08,7.70
2017,10,13,20,09,7.70
2017,10,13,20,10,7.70
2017,10,13,20,11,7.70
2017,10,13,20,12,7.70
2017,10,13,20,13,7.70
2017,10,13,20,14,7.70
2017,10,13,20,15,7.70
2017,10,13,20,16,7.70
2017,10,13,20,17,7.70
2017,10,13,20,18,7.70
2017,10,13,20,19,7.70
2017,10,13,20,20,7.70
2017,10,13,20,21,7.70
2017,10,13,20,22,7.70
2017,10,13,20,23,7.80
2017,10,13,20,24,7.70
2017,10,13,20,25,7.80
2017,10,13,20,26,7.80
2017,10,13,20,27,7.80
2017,10,13,20,28,7.80
2017,10,13,20,29,7.80
2017,10,13,20,30,7.70
2017,10,13,20,31,7.70
2017,10,13,20,32,7.70
2017,10,13,20,33,7.70
2017,10,13,20,34,7.60
2017,10,13,20,35,7.60
2017,10,13,20,36,7.50
2017,10,13,20,37,7.50
2017,10,13,20,38,7.50
2017,10,13,20,39,7.40
2017,10,13,20,40,7.40
2017,10,13,20,41,7.40
2017,10,13,20,42,7.40
2017,10,13,20,43,7.40
2017,10,13,20,44,7.40
2017,10,13,20,45,7.30
2017,10,13,20,46,7.30
2017,10,13,20,47,7.30